Location: Unspecified
(0.0000°N, 0.0000°E)
Time: 06:30:35
(UTC+00:00)

Courier 1B - Visible Passes

Search period start: 20 October 2021 00:00
Search period end: 30 October 2021 00:00
Orbit: 962 x 1209 km, 28.3° (Epoch: 19 October)

Date Brightness Start Highest point End Pass type
(mag) Time Alt. Az. Time Alt. Az. Time Alt. Az.
20 Oct 9.9 04:08:03 10° SSW 04:13:43 22° SSE 04:19:27 10° ESE visible
20 Oct 8.4 19:29:23 10° W 19:35:28 43° SSW 19:38:40 26° SSE visible
21 Oct 10.1 03:15:16 11° S 03:19:29 16° SSE 03:23:59 10° ESE visible
21 Oct 8.9 05:07:00 10° SW 05:14:28 48° SSE 05:21:58 10° ENE visible
21 Oct 8.0 18:35:19 10° WNW 18:41:41 60° SSW 18:48:09 10° SE visible
21 Oct 9.7 20:31:59 10° WSW 20:36:01 17° SSW 20:36:01 17° SSW visible
22 Oct 10.2 02:25:20 12° SSE 02:25:20 12° SSE 02:27:45 10° SE visible
22 Oct 9.2 04:13:27 10° SW 04:20:24 36° SSE 04:27:27 10° E visible
22 Oct 9.4 19:37:07 10° WSW 19:42:08 23° SSW 19:46:22 13° SSE visible
23 Oct 9.5 03:22:28 18° SSW 03:26:17 27° SSE 03:32:37 10° E visible
23 Oct 8.1 05:13:05 10° WSW 05:20:53 82° SSE 05:28:46 10° ENE visible
23 Oct 9.0 18:42:35 10° W 18:48:16 32° SSW 18:54:01 10° SSE visible
24 Oct 9.8 02:32:44 19° SSE 02:32:44 19° SSE 02:37:26 10° ESE visible
24 Oct 8.3 04:19:42 12° SW 04:26:52 61° SSE 04:34:37 10° ENE visible
24 Oct 9.9 19:46:13 10° SW 19:49:02 13° SSW 19:51:52 10° S visible
25 Oct 8.7 03:30:03 33° SSW 03:32:51 45° SSE 03:40:14 10° E visible
25 Oct 9.8 18:50:48 10° WSW 18:55:01 18° SSW 18:59:14 10° SSE visible
26 Oct 9.3 02:40:28 30° SE 02:40:28 30° SE 02:45:34 10° E visible
26 Oct 7.8 04:27:24 19° WSW 04:33:16 80° NNW 04:41:09 10° NE visible
27 Oct 7.9 03:37:50 61° SW 03:39:16 77° SSE 03:47:05 10° ENE visible
28 Oct 9.0 02:48:13 37° E 02:48:13 37° E 02:52:49 10° ENE visible
28 Oct 8.2 04:35:10 23° W 04:39:43 46° NNW 04:47:10 10° NE visible
28 Oct 9.9 18:04:45 10° SW 18:07:55 14° SSW 18:11:03 10° S visible
29 Oct 7.8 03:45:31 62° NW 03:45:41 62° NNW 03:53:22 10° NE visible
